Вернуться в каталог

FREGAT R/B

АктивенHEO
NORAD 46806·ROCKET BODY·🇷🇺 Russia

Запущен Oct 25, 2020 с Plesetsk Cosmodrome

Loading…

Ближайшие Пролёты (ближайшие 24 часа)

TLE

СвежийSource: Space-Track

Эпоха: Sep 13, 2026, 20:07 UTC

1 46806U 20075B   26256.83887102  .00000019  00000-0  00000-0 0  9996
2 46806  64.5722 192.9283 0054412 128.5055 231.9799  2.08518273 44811

Отслеживайте FREGAT R/B в реальном времени с AllMySat

Download on the App Store